Port Severn, Canada
Current Conditions -  °F | °C
As of 2:00 PM on Sunday 21 Dec 2014 (Local Time) from CYQA Reporting Station
Overcast Overcast  
Wind Chill: 30°   Ceiling: 2900
Heat Index: 30°   Visibility: 9mi
Dew Point: 21°   Wind: 2mph
Humidity: 69%   Direction: NA
Pressure: 30.24"   Gusts: NA
Location:  44.8°N, 79.72°W
Report Text: CYQA 211900Z AUTO VRB02KT 9SM OVC029 M01/M06 A3024 RMK SLP254
Loading
Personal Weather Stations






























Interactive Weather Map New forecast layout! Learn more

10-Day Weather Forecast

Advertisements
Track Severe Weather on mobile